Flag for Bahamas Weather past 2 weeks in Nassau, Bahamas

Now
81 °F

Scattered clouds.


Feels Like: 82 °F
Forecast: 68 / 79 °F
Wind: 9 mph from Southeast

Location: Nassau Airport

Current Time: Dec 21, 2014 at 2:48:17 PM

Latest Report: Dec 21, 2014 at 2:00 PM


Visibility: N/A

Pressure: 30.06 "Hg

Humidity: 58%

Dew point: 64 °F

Location of NassauLocation

Historic Weather in Nassau — Graph

°F

Nassau temperature yesterday

Maximum temperature yesterday: 79 °F (at 10:00 AM)
Minimum temperature yesterday: 63 °F (at 4:00 AM)
Average temperature yesterday: 71 °F

Past Weeks' High & Low Weather Summary

 TemperatureHumidityPressure
High82 °F (Dec 21, 1:00 PM)100% (Dec 18, 7:00 AM)30.22 "Hg (Dec 18, 7:00 AM)
Low57 °F (Dec 18, 7:00 AM)36% (Dec 14, 12:00 PM)29.90 "Hg (Dec 9, 4:00 PM)
Average71 °F68%30.08 "Hg
* Reported Dec 6 2:00 PM — Dec 21 2:00 PM, Nassau, Weather by CustomWeather, © 2014

Note: Actual official high and low records may vary slightly from our data, if they occured in-between our weather recording intervals... More about our weather records

Advertising

Nassau weather history for previous 24 hours

 ConditionsComfort  
Time TempWeatherWind HumidityBarometerVisibility
2:00 PM
Dec 21
81 °FScattered clouds.9 mph58%30.06 "HgN/A
1:00 PM82 °FWarm.5 mph58%30.09 "HgN/A
12:00 PM79 °FPassing clouds.7 mph61%30.11 "HgN/A
10:00 AM79 °FPassing clouds.No wind65%30.14 "HgN/A
9:00 AM73 °FScattered clouds.No wind74%30.14 "HgN/A
8:00 AM70 °FPassing clouds.No wind78%30.11 "HgN/A
7:00 AM63 °FPassing clouds.No wind94%30.07 "HgN/A
4:00 AM64 °FMild.No wind88%30.06 "HgN/A
3:00 AM68 °FMild.No wind83%30.07 "HgN/A
2:00 AM68 °FPassing clouds.No wind83%30.08 "HgN/A
1:00 AM64 °FPassing clouds.No wind94%30.09 "HgN/A
12:00 AM70 °FPassing clouds.No wind83%30.10 "HgN/A
11:00 PM
Dec 20
70 °FPassing clouds.No wind83%30.11 "HgN/A
10:00 PM68 °FPassing clouds.No wind83%30.11 "HgN/A
8:00 PM70 °FPassing clouds.No wind83%30.10 "HgN/A
7:00 PM72 °FPassing clouds.No wind83%30.09 "HgN/A
6:00 PM73 °FPassing clouds.1 mph69%30.08 "HgN/A
4:00 PM77 °FPartly sunny.7 mph57%30.05 "HgN/A
3:00 PM79 °FPartly sunny.9 mph54%30.06 "HgN/A
2:00 PM79 °FPartly sunny.7 mph54%30.06 "HgN/A
Weather by CustomWeather, © 2014

See weather overviewHow to use our weather pages